TimeCDT,TemperatureF,Dew PointF,Humidity,Sea Level PressureIn,VisibilityMPH,Wind Direction,Wind SpeedMPH,Gust SpeedMPH,PrecipitationIn,Events,Conditions,WindDirDegrees,DateUTC
12:18 AM,57.2,55.4,94,29.84,10.0,NNW,17.3,-,N/A,,Overcast,340,2012-09-18 05:18:00
12:56 AM,54.9,52.9,93,29.83,10.0,NNW,17.3,-,N/A,,Overcast,340,2012-09-18 05:56:00
1:13 AM,53.6,51.8,94,29.84,10.0,NNW,18.4,-,N/A,,Overcast,340,2012-09-18 06:13:00
1:56 AM,54.0,50.0,86,29.83,10.0,NNW,15.0,-,N/A,,Overcast,330,2012-09-18 06:56:00
2:56 AM,50.9,47.8,89,29.84,10.0,NNW,16.1,-,N/A,,Partly Cloudy,330,2012-09-18 07:56:00
3:22 AM,48.2,48.2,100,29.86,10.0,NNW,19.6,-,N/A,,Partly Cloudy,330,2012-09-18 08:22:00
3:56 AM,48.9,46.9,93,29.84,10.0,NNW,13.8,-,N/A,,Partly Cloudy,330,2012-09-18 08:56:00
4:56 AM,47.8,46.9,97,29.86,10.0,NNW,15.0,-,N/A,,Clear,330,2012-09-18 09:56:00
5:49 AM,48.2,46.4,93,29.89,10.0,NNW,13.8,-,N/A,,Partly Cloudy,330,2012-09-18 10:49:00
5:56 AM,46.9,45.9,96,29.88,10.0,NNW,15.0,-,N/A,,Clear,340,2012-09-18 10:56:00
6:56 AM,46.9,45.9,96,29.90,10.0,NNW,11.5,-,N/A,,Clear,330,2012-09-18 11:56:00
7:56 AM,47.8,45.9,93,29.93,10.0,NNW,12.7,-,N/A,,Clear,330,2012-09-18 12:56:00
8:56 AM,52.0,43.9,74,29.94,10.0,NNW,16.1,-,N/A,,Clear,330,2012-09-18 13:56:00
9:56 AM,54.0,43.0,66,29.96,10.0,NNW,16.1,-,N/A,,Clear,340,2012-09-18 14:56:00
10:56 AM,55.9,39.9,55,29.96,10.0,NW,19.6,-,N/A,,Clear,320,2012-09-18 15:56:00
11:56 AM,57.9,41.0,53,29.96,10.0,NNW,16.1,-,N/A,,Partly Cloudy,330,2012-09-18 16:56:00
12:56 PM,59.9,37.9,44,29.96,10.0,NNW,16.1,-,N/A,,Clear,340,2012-09-18 17:56:00
2:56 PM,59.9,34.9,39,29.98,10.0,NNW,17.3,-,N/A,,Partly Cloudy,340,2012-09-18 19:56:00
3:56 PM,59.9,34.0,38,29.99,10.0,NNW,12.7,-,N/A,,Partly Cloudy,330,2012-09-18 20:56:00
4:57 PM,57.9,34.0,41,30.01,10.0,NNW,8.1,-,N/A,,Scattered Clouds,330,2012-09-18 21:57:00
5:56 PM,56.8,34.0,42,30.02,10.0,NW,11.5,-,N/A,,Scattered Clouds,320,2012-09-18 22:56:00
6:56 PM,54.9,34.9,47,30.03,10.0,WNW,6.9,-,N/A,,Partly Cloudy,300,2012-09-18 23:56:00
7:56 PM,52.9,36.0,53,30.05,10.0,West,6.9,-,N/A,,Clear,280,2012-09-19 00:56:00
8:56 PM,52.0,36.0,54,30.06,10.0,West,5.8,-,N/A,,Clear,280,2012-09-19 01:56:00
9:56 PM,50.9,34.9,54,30.07,10.0,West,6.9,-,N/A,,Clear,280,2012-09-19 02:56:00
10:56 PM,46.9,39.9,77,30.08,10.0,WSW,5.8,-,N/A,,Clear,250,2012-09-19 03:56:00
11:56 PM,45.9,37.9,74,30.08,10.0,SW,4.6,-,N/A,,Clear,230,2012-09-19 04:56:00